[[{"header":{"parameterUnit":"m.s-1","parameterCategory":2,"la1":30.2991,"la2":30.254,"lo1":-89.0895,"lo2":-89.0444,"dy":0.0017,"dx":0.0017,"nx":28,"ny":28,"refTime":"2026-02-13T09:00:00:Z","depth":"0","parameterNumber":2,"parameterNumberName":"U-component_of_CURRENTS"},"data":[0,0,0,0,0,0,0,0,0,0,0,0,0,0,0,0,0,0,0,0,0,0,0,0,0,0,0,0,0,0,0,0,0,0,0,0,0,0,0,0,0,0,0,0,0,0,0,0,0,0,0,0,0,0,0,0,0,0,-0.268,-0.2681,0,-0.2706,-0.2706,-0.2706,-0.2679,-0.2678,-0.2678,-0.2677,-0.2672,-0.2672,-0.2673,0,0,0,0,0,0,0,0,0,0,0,0,0,-0.2611,-0.2612,-0.268,-0.2681,-0.2681,-0.2706,-0.2706,-0.2706,-0.2679,-0.2678,-0.2677,-0.2676,-0.2672,-0.2672,-0.2673,0,0,0,0,0,0,0,0,0,0,0,0,0,-0.2637,-0.2612,-0.268,-0.2673,-0.2672,-0.2706,-0.2706,-0.2706,-0.268,-0.2678,-0.2677,-0.2676,-0.2671,-0.2672,-0.2673,-0.2704,0,0,-0.2676,-0.2677,0,0,0,0,0,0,0,0,-0.2635,-0.2639,-0.2673,-0.2673,-0.2673,-0.269,-0.2679,-0.2704,-0.268,-0.2674,-0.2677,-0.2675,-0.2678,-0.2678,-0.2683,-0.2704,-0.2703,-0.2676,-0.2677,-0.2677,-0.2678,0,0,0,0,0,0,0,-0.2633,-0.2638,-0.2688,-0.2674,-0.2674,-0.2669,-0.2671,-0.2684,-0.268,-0.2675,-0.2674,-0.268,-0.2677,-0.2682,-0.2682,-0.2703,-0.2676,-0.2677,-0.2678,-0.2678,-0.2753,-0.2755,0,0,0,0,0,0,-0.2637,-0.2636,-0.2687,-0.2689,-0.2653,-0.2671,-0.2673,-0.2684,-0.2681,-0.268,-0.2681,-0.2679,-0.2681,-0.2681,-0.2682,-0.2695,-0.2677,-0.2678,-0.2679,-0.2752,-0.2754,-0.2755,0,0,0,0,0,0,-0.2635,-0.2641,-0.2686,-0.2664,-0.267,-0.2674,-0.2686,-0.2685,-0.2686,-0.2687,-0.2684,-0.2682,-0.268,-0.2681,-0.2688,-0.2696,-0.2679,-0.2679,-0.275,-0.2752,-0.2754,-0.2736,0,0,0,0,0,0,-0.2633,-0.264,-0.2645,-0.2665,-0.2672,-0.2704,-0.2687,-0.2687,-0.2693,-0.269,-0.2687,-0.2685,-0.2679,-0.2687,-0.2689,-0.2697,-0.268,-0.2748,-0.2751,-0.2754,-0.2735,-0.2738,-0.274,0,0,0,0,0,-0.263,-0.2643,-0.2645,-0.2651,-0.2679,-0.2705,-0.2708,-0.2705,-0.2694,-0.2699,-0.2693,-0.2685,-0.2706,-0.2689,-0.2691,-0.2699,-0.2747,-0.275,-0.2753,-0.2734,-0.2737,-0.274,0,0,0,0,0,0,-0.2613,-0.2643,-0.2644,-0.2665,-0.2683,-0.2701,-0.2706,-0.2708,-0.271,-0.2702,-0.2696,-0.2695,-0.2705,-0.2715,-0.2696,-0.2734,-0.2729,-0.2733,-0.2714,-0.2717,-0.2719,-0.2717,-0.2681,0,0,0,0,0,-0.2614,-0.2628,-0.2657,-0.267,-0.2682,-0.2695,-0.2703,-0.2706,-0.2714,-0.2712,-0.2711,-0.2717,-0.2725,-0.2728,-0.2738,-0.2758,-0.2746,-0.277,-0.2773,-0.2774,-0.2778,-0.2763,-0.2763,-0.2766,-0.2766,-0.2766,0,0,-0.2609,-0.2628,-0.2635,-0.2667,-0.2678,-0.2702,-0.2695,-0.2713,-0.2727,-0.2714,-0.2723,-0.2721,-0.2733,-0.2746,-0.2754,-0.2752,-0.2767,-0.2778,-0.2779,-0.2782,-0.2766,-0.2766,-0.2765,-0.2768,-0.2767,-0.2767,0,0,-0.2611,-0.2626,-0.264,-0.2662,-0.2689,-0.2703,-0.271,-0.2732,-0.2733,-0.2751,-0.2741,-0.2741,-0.2764,-0.2762,-0.2768,-0.2796,-0.2777,-0.281,-0.2817,-0.2803,-0.2802,-0.28,-0.2772,-0.2768,-0.2813,-0.2813,-0.2813,0,-0.2603,-0.2627,-0.2647,-0.2672,-0.2688,-0.2705,-0.2727,-0.2741,-0.2759,-0.2762,-0.2753,-0.277,-0.277,-0.2782,-0.2788,-0.2797,-0.2784,-0.2797,-0.2802,-0.28,-0.2799,-0.2771,-0.2767,-0.2813,-0.2813,-0.2813,-0.2813,0,-0.2619,-0.2641,-0.2652,-0.2688,-0.271,-0.2731,-0.276,-0.2775,-0.2778,-0.2786,-0.2794,-0.2789,-0.2798,-0.2802,-0.2801,-0.2804,-0.2795,-0.2798,-0.2783,-0.2797,-0.2767,-0.2763,-0.2812,-0.2812,-0.2812,-0.2812,0,0,-0.2589,-0.2651,-0.2652,-0.2671,-0.2719,-0.2737,-0.2769,-0.2797,-0.2809,-0.2816,-0.2825,-0.2828,-0.2818,-0.2825,-0.282,-0.2809,-0.2779,-0.2803,-0.2802,-0.2755,-0.2736,-0.2679,-0.2669,-0.2779,-0.2778,-0.2778,-0.2711,0,-0.2589,-0.2632,-0.2666,-0.2701,-0.2723,-0.2759,-0.2788,-0.2815,-0.2829,-0.2844,-0.2837,-0.2843,-0.2831,-0.2827,-0.2815,-0.2799,-0.2772,-0.2796,-0.2748,-0.2747,-0.2677,-0.2664,-0.2576,-0.2505,-0.2708,-0.2707,-0.2706,0,-0.2583,-0.2615,-0.265,-0.2706,-0.272,-0.2745,-0.2784,-0.2813,-0.2846,-0.2857,-0.2861,-0.2861,-0.2854,-0.2837,-0.2797,-0.2814,-0.2772,-0.2749,-0.2746,-0.2698,-0.2683,-0.253,-0.249,-0.2469,-0.27,-0.2701,-0.2701,0,-0.2532,-0.2596,-0.2619,-0.264,-0.2712,-0.2728,-0.2761,-0.2804,-0.2827,-0.2857,-0.2871,-0.2868,-0.2859,-0.2824,-0.2781,-0.2788,-0.2727,-0.2729,-0.2631,-0.2626,-0.2544,-0.2533,-0.2461,-0.2679,-0.2679,-0.2679,-0.268,0,-0.2508,-0.2523,-0.2596,-0.2608,-0.2634,-0.2696,-0.2722,-0.2758,-0.281,-0.2829,-0.2863,-0.2869,-0.2855,-0.2826,-0.2783,-0.2693,-0.2722,-0.2622,-0.2603,-0.2536,-0.2525,-0.25,-0.2519,-0.2677,-0.2677,-0.2678,-0.2678,0,-0.2435,-0.2489,-0.2515,-0.2588,-0.2608,-0.2619,-0.2693,-0.2712,-0.2776,-0.2802,-0.2812,-0.2859,-0.282,-0.2789,-0.2729,-0.2679,-0.256,-0.2565,-0.2481,-0.2453,-0.2341,-0.2363,-0.2268,-0.2205,-0.2444,-0.2442,-0.244,0,-0.2396,-0.2403,-0.2473,-0.2484,-0.2512,-0.2551,-0.2576,-0.2668,-0.2696,-0.2786,-0.2788,-0.2788,-0.2756,-0.2663,-0.2586,-0.2484,-0.2468,-0.2342,-0.2336,-0.2311,-0.2323,-0.2331,-0.2287,-0.2216,-0.2213,-0.221,-0.2208,0,-0.231,-0.2335,-0.2357,-0.2385,-0.241,-0.2446,-0.2496,-0.2522,-0.2626,-0.2656,-0.2686,-0.2675,-0.2619,-0.2492,-0.2383,-0.2314,-0.2288,-0.2283,-0.2278,-0.2152,-0.2136,-0.2073,-0.2286,-0.2184,-0.2187,-0.2188,-0.219,-0.2191,-0.2225,-0.2218,-0.2247,-0.2256,-0.229,-0.2308,-0.2293,-0.2367,-0.2392,-0.241,-0.2508,-0.2461,-0.2407,-0.2247,-0.2183,-0.2056,-0.2102,-0.199,-0.2021,-0.2033,-0.1965,-0.212,-0.1991,-0.1992,-0.1993,-0.1994,-0.1995,0,-0.2103,-0.2107,-0.2116,-0.2126,-0.2106,-0.2169,-0.2204,-0.2167,-0.2143,-0.221,-0.2205,-0.2181,-0.2055,-0.2021,-0.1915,-0.1826,-0.1782,-0.1783,-0.1781,-0.1748,-0.1889,-0.1872,-0.1686,-0.1686,-0.1686,-0.1686,-0.1686,-0.1687,-0.2038,-0.1996,-0.2,-0.1923,-0.1928,-0.1853,-0.1837,-0.181,-0.1824,-0.1792,-0.1816,-0.1881,-0.1874,-0.1941,-0.1814,-0.1723,-0.1675,-0.162,-0.1641,-0.1767,-0.1789,-0.1811,-0.1798,-0.16,-0.16,-0.1435,-0.1434,-0.1434]},{"header":{"parameterUnit":"m.s-1","parameterCategory":2,"la1":30.2991,"la2":30.254,"lo1":-89.0895,"lo2":-89.0444,"dy":0.0017,"dx":0.0017,"nx":28,"ny":28,"refTime":"2026-02-13T09:00:00:Z","depth":"0","parameterNumber":3,"parameterNumberName":"V-component_of_CURRENTS"},"data":[0,0,0,0,0,0,0,0,0,0,0,0,0,0,0,0,0,0,0,0,0,0,0,0,0,0,0,0,0,0,0,0,0,0,0,0,0,0,0,0,0,0,0,0,0,0,0,0,0,0,0,0,0,0,0,0,0,0,-0.0288,-0.0288,0,-0.0227,-0.0226,-0.0225,-0.0178,-0.0177,-0.0177,-0.0177,-0.0046,-0.0043,-0.004,0,0,0,0,0,0,0,0,0,0,0,0,0,-0.0322,-0.0321,-0.0288,-0.0288,-0.0287,-0.0227,-0.0226,-0.0225,-0.0178,-0.0177,-0.0177,-0.0176,-0.0047,-0.0043,-0.0039,0,0,0,0,0,0,0,0,0,0,0,0,0,-0.0288,-0.0321,-0.0289,-0.0257,-0.0253,-0.0227,-0.0226,-0.0225,-0.0178,-0.0177,-0.0177,-0.0176,-0.0048,-0.0043,-0.0039,-0.0021,0,0,-0.0024,-0.0022,0,0,0,0,0,0,0,0,-0.029,-0.0286,-0.0262,-0.0259,-0.0255,-0.021,-0.019,-0.0154,-0.0178,-0.0206,-0.0177,-0.0176,-0.0095,-0.0087,-0.0076,-0.0015,-0.0009,-0.0024,-0.0021,-0.0019,-0.0018,0,0,0,0,0,0,0,-0.0292,-0.0288,-0.0263,-0.0262,-0.0257,-0.0231,-0.0226,-0.0183,-0.0152,-0.0203,-0.02,-0.0195,-0.0093,-0.0081,-0.0072,-0.0007,-0.0024,-0.002,-0.0017,-0.0015,0.0079,0.0078,0,0,0,0,0,0,-0.0305,-0.0291,-0.0265,-0.0261,-0.0272,-0.0231,-0.0225,-0.0224,-0.0154,-0.0144,-0.0195,-0.0193,-0.0089,-0.0078,-0.0068,-0.0045,-0.0019,-0.0015,-0.0012,0.0079,0.0078,0.0078,0,0,0,0,0,0,-0.0306,-0.0303,-0.0268,-0.0275,-0.0269,-0.0232,-0.0231,-0.0224,-0.0211,-0.0149,-0.0137,-0.019,-0.0088,-0.0074,-0.0038,-0.0039,-0.0013,-0.0008,0.0079,0.0079,0.0078,0.0003,0,0,0,0,0,0,-0.0307,-0.0304,-0.0308,-0.0276,-0.0269,-0.0258,-0.0231,-0.0223,-0.0209,-0.0205,-0.014,-0.0128,-0.0087,-0.0046,-0.0034,-0.0032,-0.0005,0.008,0.0079,0.0078,0.0005,-0.0,-0.0006,0,0,0,0,0,-0.0308,-0.032,-0.0309,-0.0306,-0.0277,-0.0258,-0.0252,-0.0222,-0.0209,-0.0208,-0.0169,-0.013,-0.0041,-0.0042,-0.0028,-0.0025,0.008,0.0079,0.0079,0.0008,0.0001,-0.0005,0,0,0,0,0,0,-0.0338,-0.0316,-0.0303,-0.0308,-0.0286,-0.0251,-0.0248,-0.0228,-0.0197,-0.0192,-0.0134,-0.0119,-0.0091,-0.0048,-0.0052,-0.0001,0.0027,0.0029,-0.0032,-0.0038,-0.0044,-0.0049,-0.0001,0,0,0,0,0,-0.0348,-0.035,-0.0322,-0.0325,-0.0318,-0.0284,-0.0273,-0.0254,-0.0223,-0.0209,-0.0165,-0.0118,-0.0083,-0.0054,-0.0018,0.0015,0.0061,0.0026,0.002,0.0015,0.002,0.0079,0.0079,0.0076,0.0076,0.0076,0,0,-0.0359,-0.0348,-0.0349,-0.0332,-0.0313,-0.031,-0.0276,-0.0266,-0.0259,-0.0198,-0.0176,-0.014,-0.0082,-0.0054,-0.0036,-0.0016,0.0039,0.0014,0.001,0.0018,0.0078,0.0078,0.0079,0.0075,0.0075,0.0075,0,0,-0.0391,-0.0375,-0.039,-0.0376,-0.0356,-0.0333,-0.0333,-0.03,-0.028,-0.0256,-0.0217,-0.0182,-0.0122,-0.0083,-0.0055,-0.0066,-0.0,-0.0053,-0.0073,-0.0017,-0.0017,-0.0015,0.0037,0.0044,-0.0046,-0.0046,-0.0047,0,-0.0407,-0.042,-0.039,-0.0401,-0.0394,-0.0348,-0.036,-0.0333,-0.0292,-0.0273,-0.0259,-0.0178,-0.0135,-0.0092,-0.01,-0.0077,-0.0035,-0.0055,-0.0025,-0.0022,-0.0019,0.0034,0.0042,-0.005,-0.005,-0.0049,-0.0049,0,-0.0449,-0.0457,-0.0464,-0.046,-0.0447,-0.045,-0.0411,-0.0392,-0.0362,-0.0328,-0.0285,-0.0229,-0.0177,-0.0161,-0.0132,-0.0093,-0.0067,-0.0048,-0.001,-0.0024,0.0033,0.0043,-0.0056,-0.0054,-0.0053,-0.0052,0,0,-0.0492,-0.0495,-0.0497,-0.0508,-0.048,-0.0477,-0.046,-0.0428,-0.0413,-0.0363,-0.0335,-0.0279,-0.0241,-0.0207,-0.0163,-0.0111,-0.0065,-0.0075,-0.007,-0.0027,0.006,0.0103,0.0119,-0.0039,-0.0038,-0.0037,0.009,0,-0.0535,-0.0576,-0.0555,-0.0581,-0.0597,-0.0548,-0.0535,-0.0496,-0.0448,-0.0407,-0.0334,-0.0294,-0.0259,-0.0237,-0.0181,-0.0091,-0.004,-0.01,0.0072,0.0077,0.0114,0.0131,0.0155,0.0272,0.01,0.0102,0.0103,0,-0.0583,-0.0605,-0.0646,-0.0647,-0.0647,-0.0647,-0.0613,-0.0594,-0.0515,-0.0475,-0.0411,-0.0349,-0.0268,-0.0242,-0.0086,-0.0124,-0.0043,0.0029,0.0036,0.0112,0.0139,0.0261,0.0298,0.0435,0.0119,0.0118,0.0117,0,-0.0641,-0.0664,-0.0701,-0.0703,-0.0695,-0.0695,-0.068,-0.0617,-0.0597,-0.0515,-0.0482,-0.0375,-0.0319,-0.0199,-0.0049,-0.0066,0.0131,0.0128,0.0244,0.0248,0.0322,0.0331,0.0511,0.0231,0.0231,0.023,0.023,0,-0.0699,-0.0726,-0.0734,-0.0757,-0.079,-0.0755,-0.076,-0.0723,-0.0661,-0.0631,-0.0525,-0.0469,-0.0305,-0.0171,-0.0046,0.0145,0.0139,0.0252,0.0289,0.0296,0.0299,0.0466,0.051,0.0235,0.0234,0.0233,0.0232,0,-0.0757,-0.0762,-0.0809,-0.0819,-0.0823,-0.0846,-0.0828,-0.0823,-0.0751,-0.0706,-0.0683,-0.0529,-0.0346,-0.0166,0.0046,0.0152,0.0414,0.0388,0.0384,0.0418,0.0634,0.0671,0.0889,0.0959,0.0531,0.0533,0.0535,0,-0.0791,-0.0824,-0.0866,-0.0898,-0.0907,-0.0928,-0.0938,-0.0882,-0.0866,-0.0736,-0.0716,-0.0532,-0.0386,-0.0045,0.0181,0.0427,0.0516,0.0577,0.0545,0.0668,0.0737,0.0759,0.0803,0.0613,0.0615,0.0617,0.0619,0,-0.0855,-0.0868,-0.0907,-0.0979,-0.101,-0.1037,-0.104,-0.1041,-0.0957,-0.0886,-0.0752,-0.062,-0.028,0.0022,0.0343,0.0486,0.0676,0.0619,0.0758,0.0833,0.0859,0.0936,0.0503,0.0634,0.0632,0.0631,0.0631,0.063,-0.0891,-0.0939,-0.0992,-0.1054,-0.1095,-0.113,-0.1141,-0.1115,-0.107,-0.0938,-0.0799,-0.0562,-0.0124,0.0341,0.0512,0.0865,0.0818,0.0955,0.0996,0.1011,0.107,0.0668,0.0829,0.0829,0.0828,0.0828,0.0828,0,-0.0935,-0.0989,-0.1061,-0.1132,-0.1187,-0.1185,-0.1192,-0.1165,-0.1103,-0.0947,-0.0782,-0.0291,0.0142,0.0542,0.1043,0.1231,0.1255,0.1325,0.1366,0.1395,0.1064,0.1058,0.1262,0.1262,0.1262,0.1262,0.1261,0.1261,-0.0959,-0.1039,-0.1081,-0.1186,-0.1233,-0.1266,-0.1263,-0.1193,-0.1075,-0.0794,-0.0515,-0.0287,0.0293,0.11,0.1561,0.1599,0.1737,0.1729,0.1806,0.1578,0.1546,0.1516,0.1524,0.1823,0.1823,0.212,0.2123,0.2125]}],[{"header":{"parameterUnit":"m.s-1","parameterCategory":2,"la1":30.2991,"la2":30.254,"lo1":-89.0895,"lo2":-89.0444,"dy":0.0017,"dx":0.0017,"nx":28,"ny":28,"refTime":"2026-02-13T09:00:00:Z","depth":"2","parameterNumber":2,"parameterNumberName":"U-component_of_CURRENTS"},"data":[0,0,0,0,0,0,0,0,0,0,0,0,0,0,0,0,0,0,0,0,0,0,0,0,0,0,0,0,0,0,0,0,0,0,0,0,0,0,0,0,0,0,0,0,0,0,0,0,0,0,0,0,0,0,0,0,0,0,-0.233,-0.233,0,-0.2357,-0.2357,-0.2357,-0.2343,-0.2343,-0.2342,-0.2342,-0.2348,-0.2348,-0.2349,0,0,0,0,0,0,0,0,0,0,0,0,0,-0.2267,-0.2268,-0.2329,-0.233,-0.2331,-0.2357,-0.2357,-0.2357,-0.2343,-0.2343,-0.2342,-0.2341,-0.2348,-0.2348,-0.2349,0,0,0,0,0,0,0,0,0,0,0,0,0,-0.2292,-0.2268,-0.2329,-0.2328,-0.2329,-0.2357,-0.2357,-0.2357,-0.2343,-0.2342,-0.2342,-0.2341,-0.2347,-0.2348,-0.2349,-0.2371,0,0,-0.2352,-0.2353,0,0,0,0,0,0,0,0,-0.229,-0.2294,-0.2328,-0.2328,-0.2329,-0.2347,-0.2337,-0.2361,-0.2343,-0.2336,-0.2341,-0.2341,-0.2348,-0.2349,-0.2353,-0.2371,-0.2372,-0.2352,-0.2353,-0.2353,-0.2354,0,0,0,0,0,0,0,-0.2289,-0.2293,-0.2338,-0.2329,-0.2329,-0.2327,-0.2329,-0.2341,-0.2344,-0.2336,-0.2336,-0.2342,-0.2347,-0.2352,-0.2353,-0.2372,-0.2352,-0.2353,-0.2354,-0.2354,-0.242,-0.2422,0,0,0,0,0,0,-0.2291,-0.2291,-0.2337,-0.2339,-0.231,-0.2329,-0.2331,-0.2341,-0.2344,-0.2345,-0.2343,-0.2342,-0.2351,-0.2352,-0.2353,-0.2376,-0.2353,-0.2354,-0.2355,-0.2419,-0.2421,-0.2422,0,0,0,0,0,0,-0.2289,-0.2295,-0.2336,-0.2317,-0.2322,-0.2331,-0.2341,-0.2342,-0.2349,-0.235,-0.2349,-0.235,-0.235,-0.2352,-0.2366,-0.2376,-0.2355,-0.2356,-0.2418,-0.242,-0.2421,-0.2425,0,0,0,0,0,0,-0.2287,-0.2294,-0.23,-0.2317,-0.2324,-0.2355,-0.2342,-0.2343,-0.2355,-0.2353,-0.2356,-0.2355,-0.2349,-0.2364,-0.2367,-0.2377,-0.2356,-0.2416,-0.2419,-0.2421,-0.2424,-0.2427,-0.243,0,0,0,0,0,-0.2285,-0.2297,-0.23,-0.2305,-0.2332,-0.2356,-0.2359,-0.236,-0.2356,-0.2363,-0.2364,-0.2355,-0.238,-0.2366,-0.2369,-0.238,-0.2415,-0.2418,-0.2421,-0.2422,-0.2426,-0.2429,0,0,0,0,0,0,-0.227,-0.2297,-0.2301,-0.2319,-0.2338,-0.2354,-0.2362,-0.2367,-0.2374,-0.2372,-0.2368,-0.2368,-0.2384,-0.2389,-0.2373,-0.2408,-0.2398,-0.2401,-0.2399,-0.2402,-0.2405,-0.2403,-0.2357,0,0,0,0,0,-0.2272,-0.2286,-0.2312,-0.2325,-0.2337,-0.2351,-0.2361,-0.2367,-0.2378,-0.238,-0.2383,-0.239,-0.2399,-0.2405,-0.2413,-0.2434,-0.2419,-0.2446,-0.2449,-0.2451,-0.2453,-0.2439,-0.2439,-0.2431,-0.2431,-0.2431,0,0,-0.2268,-0.2285,-0.2293,-0.2323,-0.2335,-0.2359,-0.2355,-0.2375,-0.2391,-0.2381,-0.2399,-0.24,-0.2408,-0.2424,-0.2433,-0.2428,-0.2446,-0.2454,-0.2456,-0.2457,-0.2441,-0.2442,-0.2442,-0.2432,-0.2432,-0.2432,0,0,-0.2271,-0.2287,-0.2301,-0.2323,-0.2351,-0.2364,-0.2374,-0.2398,-0.2403,-0.2426,-0.242,-0.2426,-0.2449,-0.2447,-0.2452,-0.2482,-0.2462,-0.2493,-0.2505,-0.2491,-0.2491,-0.249,-0.2466,-0.2463,-0.2495,-0.2495,-0.2495,0,-0.2266,-0.2289,-0.2309,-0.2333,-0.235,-0.2369,-0.2392,-0.2408,-0.2432,-0.2438,-0.2434,-0.2456,-0.2457,-0.2471,-0.2481,-0.2486,-0.2473,-0.2485,-0.2492,-0.2491,-0.2491,-0.2466,-0.2463,-0.2495,-0.2495,-0.2495,-0.2495,0,-0.2282,-0.2305,-0.2316,-0.2352,-0.2375,-0.2397,-0.2428,-0.2447,-0.2457,-0.2468,-0.2484,-0.2483,-0.2494,-0.2499,-0.2498,-0.2505,-0.2495,-0.2493,-0.2475,-0.2491,-0.2465,-0.2461,-0.2496,-0.2496,-0.2496,-0.2496,0,0,-0.2256,-0.2316,-0.2319,-0.2338,-0.2387,-0.2405,-0.2441,-0.2471,-0.2488,-0.2503,-0.2518,-0.2527,-0.2523,-0.2528,-0.2525,-0.2515,-0.2496,-0.2507,-0.2506,-0.2469,-0.2457,-0.2399,-0.239,-0.2493,-0.2493,-0.2493,-0.2435,0,-0.2259,-0.2301,-0.2334,-0.2371,-0.2394,-0.2431,-0.2463,-0.2493,-0.2512,-0.2533,-0.2533,-0.2545,-0.2536,-0.2538,-0.2528,-0.2513,-0.2491,-0.2512,-0.2458,-0.2457,-0.2392,-0.2385,-0.2227,-0.2158,-0.2432,-0.2431,-0.2431,0,-0.2255,-0.2286,-0.2324,-0.238,-0.2394,-0.2421,-0.2466,-0.2497,-0.2536,-0.2551,-0.2562,-0.2566,-0.2565,-0.2551,-0.2516,-0.2531,-0.2494,-0.2472,-0.2469,-0.2412,-0.2394,-0.2189,-0.2142,-0.2425,-0.2426,-0.2426,-0.2427,0,-0.221,-0.2274,-0.23,-0.232,-0.2391,-0.2412,-0.2447,-0.2494,-0.2519,-0.2557,-0.2573,-0.2577,-0.2573,-0.2542,-0.2504,-0.251,-0.2454,-0.2454,-0.236,-0.2355,-0.2208,-0.219,-0.241,-0.241,-0.241,-0.241,-0.241,0,-0.2191,-0.2209,-0.2281,-0.2295,-0.2326,-0.2387,-0.2418,-0.2457,-0.2511,-0.253,-0.2571,-0.2577,-0.257,-0.2544,-0.2506,-0.2422,-0.245,-0.2355,-0.2335,-0.2205,-0.2189,-0.2418,-0.242,-0.2408,-0.2409,-0.2409,-0.2409,0,-0.2127,-0.2179,-0.2209,-0.2282,-0.2303,-0.232,-0.2395,-0.2415,-0.2482,-0.2508,-0.2521,-0.2568,-0.2535,-0.2511,-0.2456,-0.2409,-0.2345,-0.2302,-0.2149,-0.2112,-0.2254,-0.2257,-0.2192,-0.2189,-0.2187,-0.2185,-0.2184,0,-0.2093,-0.2103,-0.2175,-0.2188,-0.2218,-0.2261,-0.2287,-0.2377,-0.2402,-0.2489,-0.2489,-0.2496,-0.2464,-0.238,-0.2306,-0.2213,-0.227,-0.2012,-0.1993,-0.2243,-0.2231,-0.2238,-0.2244,-0.1794,-0.1789,-0.1786,-0.1783,0,-0.2018,-0.2045,-0.2068,-0.2098,-0.2126,-0.216,-0.2208,-0.2229,-0.2327,-0.2354,-0.2377,-0.2366,-0.2318,-0.216,-0.2064,-0.1992,-0.2021,-0.1933,-0.2215,-0.1886,-0.1866,-0.1856,-0.1874,-0.1749,-0.1752,-0.1755,-0.1757,-0.1758,-0.1943,-0.1939,-0.1969,-0.1982,-0.2015,-0.2025,-0.2009,-0.2071,-0.2089,-0.2096,-0.2189,-0.2113,-0.2093,-0.1866,-0.1763,-0.1684,-0.1818,-0.1723,-0.1734,-0.175,-0.1727,-0.1706,-0.1553,-0.1555,-0.1557,-0.1558,-0.156,0,-0.1832,-0.1838,-0.1848,-0.1858,-0.1836,-0.1899,-0.1921,-0.1875,-0.1841,-0.1882,-0.1872,-0.1678,-0.1578,-0.1558,-0.1397,-0.1363,-0.1349,-0.1291,-0.1275,-0.1309,-0.134,-0.1296,-0.1007,-0.1005,-0.1004,-0.1002,0,0,-0.1774,-0.1735,-0.1737,-0.166,-0.1668,-0.1591,-0.1569,-0.1527,-0.1518,-0.1436,-0.14,-0.1506,-0.153,-0.1275,-0.1211,-0.1087,-0.1185,-0.1029,-0.1475,-0.1492,-0.152,-0.1592,-0.1564,0,0,0,0,0]},{"header":{"parameterUnit":"m.s-1","parameterCategory":2,"la1":30.2991,"la2":30.254,"lo1":-89.0895,"lo2":-89.0444,"dy":0.0017,"dx":0.0017,"nx":28,"ny":28,"refTime":"2026-02-13T09:00:00:Z","depth":"2","parameterNumber":3,"parameterNumberName":"V-component_of_CURRENTS"},"data":[0,0,0,0,0,0,0,0,0,0,0,0,0,0,0,0,0,0,0,0,0,0,0,0,0,0,0,0,0,0,0,0,0,0,0,0,0,0,0,0,0,0,0,0,0,0,0,0,0,0,0,0,0,0,0,0,0,0,-0.0352,-0.0351,0,-0.0297,-0.0296,-0.0296,-0.0251,-0.0251,-0.025,-0.025,-0.0131,-0.0128,-0.0125,0,0,0,0,0,0,0,0,0,0,0,0,0,-0.0377,-0.0377,-0.0352,-0.0351,-0.0351,-0.0297,-0.0296,-0.0296,-0.0251,-0.0251,-0.025,-0.025,-0.0131,-0.0128,-0.0125,0,0,0,0,0,0,0,0,0,0,0,0,0,-0.0348,-0.0377,-0.0352,-0.0323,-0.032,-0.0297,-0.0296,-0.0295,-0.0251,-0.0251,-0.025,-0.025,-0.0133,-0.0128,-0.0124,-0.011,0,0,-0.0111,-0.011,0,0,0,0,0,0,0,0,-0.035,-0.0347,-0.0328,-0.0325,-0.0321,-0.0281,-0.0261,-0.023,-0.0251,-0.0276,-0.025,-0.0249,-0.0176,-0.0168,-0.0159,-0.0105,-0.0099,-0.0111,-0.0109,-0.0107,-0.0106,0,0,0,0,0,0,0,-0.0352,-0.0349,-0.0329,-0.0327,-0.0323,-0.0298,-0.0294,-0.0255,-0.0228,-0.0274,-0.0271,-0.0266,-0.0173,-0.0163,-0.0156,-0.0098,-0.0111,-0.0107,-0.0105,-0.0103,-0.0024,-0.0024,0,0,0,0,0,0,-0.0363,-0.0351,-0.0331,-0.0328,-0.0335,-0.0298,-0.0293,-0.0294,-0.023,-0.022,-0.0267,-0.0264,-0.0171,-0.0161,-0.0151,-0.0129,-0.0107,-0.0103,-0.01,-0.0023,-0.0024,-0.0024,0,0,0,0,0,0,-0.0364,-0.0362,-0.0333,-0.0338,-0.0333,-0.0299,-0.03,-0.0293,-0.0281,-0.0225,-0.0214,-0.0261,-0.017,-0.0157,-0.0124,-0.0124,-0.0101,-0.0097,-0.0023,-0.0023,-0.0024,-0.0085,0,0,0,0,0,0,-0.0365,-0.0363,-0.0367,-0.0339,-0.0333,-0.0325,-0.03,-0.0293,-0.0279,-0.0276,-0.0217,-0.0205,-0.0168,-0.013,-0.012,-0.0118,-0.0094,-0.0022,-0.0023,-0.0024,-0.0083,-0.0088,-0.0092,0,0,0,0,0,-0.0366,-0.0378,-0.0368,-0.0366,-0.0341,-0.0325,-0.032,-0.0293,-0.028,-0.0279,-0.0242,-0.0207,-0.0127,-0.0127,-0.0115,-0.0111,-0.0022,-0.0023,-0.0024,-0.008,-0.0087,-0.0092,0,0,0,0,0,0,-0.0392,-0.0374,-0.0362,-0.0369,-0.035,-0.0318,-0.0316,-0.0297,-0.0269,-0.0264,-0.0211,-0.0197,-0.0171,-0.0134,-0.0136,-0.0092,-0.0069,-0.0067,-0.0117,-0.0122,-0.0127,-0.0131,-0.009,0,0,0,0,0,-0.0401,-0.0405,-0.038,-0.0385,-0.0378,-0.0348,-0.0338,-0.0321,-0.0292,-0.0279,-0.0239,-0.0198,-0.0166,-0.0139,-0.0108,-0.0079,-0.0038,-0.0069,-0.0074,-0.0078,-0.0073,-0.0021,-0.0021,-0.0027,-0.0027,-0.0027,0,0,-0.0412,-0.0403,-0.0404,-0.0391,-0.0374,-0.0371,-0.034,-0.0331,-0.0324,-0.027,-0.0249,-0.0215,-0.0165,-0.0139,-0.0123,-0.0105,-0.0056,-0.0079,-0.0083,-0.0076,-0.0022,-0.0021,-0.0021,-0.0028,-0.0028,-0.0028,0,0,-0.0441,-0.0429,-0.0442,-0.043,-0.0412,-0.0392,-0.0392,-0.0362,-0.0343,-0.0322,-0.0285,-0.0253,-0.02,-0.0164,-0.0139,-0.0148,-0.0091,-0.0139,-0.0155,-0.0105,-0.0104,-0.0102,-0.0056,-0.005,-0.0133,-0.0133,-0.0133,0,-0.0455,-0.0468,-0.0443,-0.0452,-0.0446,-0.0405,-0.0415,-0.0391,-0.0354,-0.0336,-0.0323,-0.0249,-0.021,-0.017,-0.0177,-0.0158,-0.0121,-0.0138,-0.0111,-0.0108,-0.0106,-0.0058,-0.0051,-0.0136,-0.0136,-0.0136,-0.0135,0,-0.0493,-0.0501,-0.0507,-0.0504,-0.0493,-0.0495,-0.046,-0.0444,-0.0416,-0.0385,-0.0345,-0.0293,-0.0246,-0.0232,-0.0205,-0.0168,-0.0146,-0.0131,-0.0097,-0.0109,-0.0058,-0.0049,-0.0141,-0.014,-0.0139,-0.0138,0,0,-0.0531,-0.0535,-0.0537,-0.0546,-0.0522,-0.0519,-0.0503,-0.0475,-0.0461,-0.0415,-0.0389,-0.0336,-0.03,-0.027,-0.0229,-0.0182,-0.0138,-0.0151,-0.0147,-0.0106,-0.0027,0.001,0.0024,-0.0116,-0.0115,-0.0114,-0.0002,0,-0.0569,-0.0605,-0.0588,-0.0611,-0.0625,-0.0582,-0.057,-0.0535,-0.0493,-0.0455,-0.0387,-0.0351,-0.0315,-0.0295,-0.0243,-0.0163,-0.0116,-0.017,-0.0019,-0.0015,0.0019,0.0035,0.0008,0.0108,0.0008,0.0009,0.001,0,-0.0611,-0.0631,-0.0667,-0.0669,-0.067,-0.0671,-0.0641,-0.0624,-0.0553,-0.0517,-0.0457,-0.0401,-0.0324,-0.03,-0.0157,-0.0192,-0.0118,-0.0054,-0.0048,0.0018,0.004,0.0106,0.0129,0.0026,0.0025,0.0024,0.0023,0,-0.0662,-0.0683,-0.0717,-0.0719,-0.0713,-0.0713,-0.0701,-0.0646,-0.0629,-0.0554,-0.0526,-0.0426,-0.0374,-0.0264,-0.0128,-0.0142,0.0035,0.0033,0.0137,0.0141,0.0164,0.0167,0.0128,0.0128,0.0128,0.0128,0.0127,0,-0.0712,-0.0737,-0.0746,-0.0767,-0.0798,-0.0767,-0.0775,-0.0742,-0.0688,-0.0664,-0.0565,-0.0517,-0.0363,-0.0242,-0.0126,0.0047,0.0041,0.0146,0.0178,0.0141,0.0141,0.0106,0.0102,0.0132,0.0131,0.013,0.0129,0,-0.0764,-0.0769,-0.0812,-0.0823,-0.0828,-0.085,-0.0839,-0.0837,-0.0773,-0.0737,-0.0716,-0.0576,-0.0411,-0.0243,-0.0051,0.0049,0.0206,0.0264,0.0211,0.0235,0.0274,0.0265,0.0388,0.039,0.0392,0.0394,0.0395,0,-0.0794,-0.0823,-0.0865,-0.0896,-0.0905,-0.0927,-0.094,-0.0892,-0.088,-0.077,-0.0753,-0.0589,-0.0459,-0.0148,0.006,0.0287,0.0274,0.038,0.0347,0.0285,0.0304,0.0292,0.028,0.035,0.0351,0.0352,0.0353,0,-0.085,-0.0864,-0.09,-0.097,-0.1002,-0.1031,-0.1037,-0.1041,-0.097,-0.0911,-0.0797,-0.0682,-0.0375,-0.0121,0.0175,0.0298,0.0343,0.0402,0.0371,0.0285,0.0258,0.0273,0.0262,0.0359,0.0359,0.0358,0.0358,0.0358,-0.0883,-0.0928,-0.0978,-0.1039,-0.1082,-0.1118,-0.1133,-0.1111,-0.1076,-0.0962,-0.0846,-0.0639,-0.0391,0.0035,0.0247,0.0441,0.0427,0.0464,0.0458,0.0452,0.0424,0.0402,0.0525,0.0525,0.0525,0.0526,0.0526,0,-0.0924,-0.0974,-0.1042,-0.1112,-0.1168,-0.1169,-0.1182,-0.1159,-0.1108,-0.0971,-0.0828,-0.054,-0.0243,0.0021,0.0334,0.0514,0.0489,0.0538,0.0464,0.0456,0.045,0.0418,0.052,0.052,0.0521,0.0521,0,0,-0.0947,-0.1021,-0.106,-0.1163,-0.1211,-0.1249,-0.125,-0.1185,-0.1079,-0.0927,-0.0765,-0.0553,-0.0232,-0.0017,0.0216,0.038,0.0369,0.0394,0.038,0.0258,0.025,0.0391,0.0333,0,0,0,0,0]}],[{"header":{"parameterUnit":"m.s-1","parameterCategory":2,"la1":30.2991,"la2":30.254,"lo1":-89.0895,"lo2":-89.0444,"dy":0.0017,"dx":0.0017,"nx":28,"ny":28,"refTime":"2026-02-13T09:00:00:Z","depth":"4","parameterNumber":2,"parameterNumberName":"U-component_of_CURRENTS"},"data":[0,0,0,0,0,0,0,0,0,0,0,0,0,0,0,0,0,0,0,0,0,0,0,0,0,0,0,0,0,0,0,0,0,0,0,0,0,0,0,0,0,0,0,0,0,0,0,0,0,0,0,0,0,0,0,0,0,0,-0.1556,-0.1557,0,-0.1616,-0.1617,-0.1617,-0.1655,-0.1655,-0.1655,-0.1656,-0.1724,-0.1726,-0.1727,0,0,0,0,0,0,0,0,0,0,0,0,0,-0.1473,-0.1474,-0.1556,-0.1557,-0.1558,-0.1616,-0.1617,-0.1617,-0.1655,-0.1655,-0.1655,-0.1656,-0.1724,-0.1725,-0.1727,0,0,0,0,0,0,0,0,0,0,0,0,0,-0.1517,-0.1475,-0.1556,-0.1584,-0.1587,-0.1616,-0.1617,-0.1617,-0.1655,-0.1655,-0.1656,-0.1656,-0.1723,-0.1725,-0.1727,-0.1731,0,0,-0.1734,-0.1735,0,0,0,0,0,0,0,0,-0.1515,-0.152,-0.1579,-0.1582,-0.1586,-0.163,-0.1613,-0.1657,-0.1654,-0.1628,-0.1656,-0.1656,-0.1694,-0.1698,-0.1707,-0.1735,-0.1738,-0.1735,-0.1736,-0.1737,-0.1738,0,0,0,0,0,0,0,-0.1512,-0.1518,-0.1578,-0.158,-0.1584,-0.1594,-0.1601,-0.1621,-0.1656,-0.163,-0.1633,-0.1642,-0.1696,-0.1704,-0.1709,-0.1739,-0.1735,-0.1737,-0.1738,-0.1739,-0.1839,-0.1841,0,0,0,0,0,0,-0.1507,-0.1515,-0.1576,-0.158,-0.1552,-0.1595,-0.1603,-0.1614,-0.1656,-0.1663,-0.1641,-0.1644,-0.17,-0.1706,-0.1711,-0.1781,-0.1737,-0.1739,-0.174,-0.1838,-0.184,-0.1841,0,0,0,0,0,0,-0.1505,-0.1512,-0.1574,-0.155,-0.1559,-0.1596,-0.1609,-0.1615,-0.1652,-0.1665,-0.1672,-0.1675,-0.1701,-0.1708,-0.1755,-0.1781,-0.174,-0.1742,-0.1836,-0.1838,-0.184,-0.188,0,0,0,0,0,0,-0.1502,-0.1511,-0.153,-0.155,-0.156,-0.1608,-0.1608,-0.1616,-0.1655,-0.166,-0.1696,-0.1701,-0.1702,-0.1752,-0.1757,-0.1784,-0.1744,-0.1835,-0.1837,-0.184,-0.1877,-0.1883,-0.1888,0,0,0,0,0,-0.1499,-0.1518,-0.153,-0.1539,-0.1581,-0.1609,-0.1616,-0.1643,-0.1657,-0.1677,-0.1705,-0.1701,-0.1771,-0.1755,-0.1761,-0.1789,-0.1834,-0.1837,-0.1839,-0.1874,-0.1882,-0.1888,0,0,0,0,0,0,-0.1493,-0.1525,-0.1538,-0.1568,-0.1596,-0.1617,-0.1642,-0.166,-0.1698,-0.1711,-0.1721,-0.1728,-0.1777,-0.178,-0.1762,-0.1825,-0.1801,-0.1805,-0.1825,-0.1832,-0.1838,-0.1833,-0.1746,0,0,0,0,0,-0.15,-0.1525,-0.1553,-0.158,-0.1596,-0.1626,-0.1646,-0.1666,-0.1695,-0.1714,-0.174,-0.1766,-0.1789,-0.181,-0.183,-0.1868,-0.1847,-0.1889,-0.1895,-0.1899,-0.19,-0.1889,-0.1893,-0.1851,-0.1851,-0.1851,0,0,-0.1506,-0.1527,-0.1543,-0.1581,-0.1606,-0.1637,-0.164,-0.1681,-0.1712,-0.1715,-0.1775,-0.1791,-0.1805,-0.1845,-0.1867,-0.1855,-0.1901,-0.1903,-0.1907,-0.1905,-0.1892,-0.1896,-0.19,-0.1853,-0.1852,-0.1852,0,0,-0.152,-0.155,-0.1575,-0.1602,-0.1645,-0.1664,-0.1682,-0.1723,-0.175,-0.1802,-0.181,-0.1842,-0.1888,-0.1896,-0.1905,-0.1955,-0.193,-0.1969,-0.1995,-0.1985,-0.1988,-0.199,-0.1964,-0.1964,-0.1972,-0.1972,-0.1972,0,-0.1529,-0.1561,-0.1587,-0.1617,-0.1645,-0.1679,-0.1713,-0.1744,-0.1797,-0.182,-0.183,-0.1891,-0.1907,-0.194,-0.196,-0.1967,-0.1952,-0.1967,-0.199,-0.1992,-0.1994,-0.1967,-0.1966,-0.1974,-0.1974,-0.1974,-0.1974,0,-0.1552,-0.1591,-0.161,-0.1659,-0.1692,-0.1728,-0.177,-0.1814,-0.1852,-0.1875,-0.1929,-0.1948,-0.1979,-0.1992,-0.1996,-0.2022,-0.2004,-0.1996,-0.1969,-0.2,-0.197,-0.1968,-0.1977,-0.1977,-0.1976,-0.1975,0,0,-0.1533,-0.1611,-0.1621,-0.1653,-0.1719,-0.1745,-0.1805,-0.1856,-0.1893,-0.1943,-0.1982,-0.2024,-0.2033,-0.2043,-0.205,-0.2047,-0.2048,-0.2035,-0.2033,-0.2001,-0.2016,-0.1901,-0.1888,-0.2046,-0.2046,-0.2046,-0.1988,0,-0.1545,-0.1604,-0.1644,-0.1707,-0.174,-0.1795,-0.1844,-0.1897,-0.1941,-0.1988,-0.2011,-0.205,-0.2052,-0.2071,-0.2072,-0.206,-0.2047,-0.2064,-0.1998,-0.1996,-0.1882,-0.1883,-0.2047,-0.1987,-0.1986,-0.1986,-0.1986,0,-0.1546,-0.1588,-0.1651,-0.1731,-0.1752,-0.1799,-0.1877,-0.1925,-0.1991,-0.2025,-0.2064,-0.2082,-0.2105,-0.2095,-0.2078,-0.2091,-0.2059,-0.2038,-0.2035,-0.1911,-0.1877,-0.1951,-0.1982,-0.1982,-0.1983,-0.1983,-0.1983,0,-0.15,-0.1589,-0.1641,-0.167,-0.1765,-0.181,-0.1864,-0.1938,-0.1977,-0.2048,-0.2074,-0.2105,-0.2119,-0.2097,-0.2069,-0.2076,-0.2029,-0.2026,-0.1885,-0.1876,-0.198,-0.1979,-0.1994,-0.1994,-0.1994,-0.1995,-0.1995,0,-0.1477,-0.1522,-0.1631,-0.1657,-0.172,-0.1797,-0.1862,-0.1919,-0.1994,-0.202,-0.2088,-0.2096,-0.2122,-0.2102,-0.207,-0.1965,-0.2025,-0.1879,-0.1851,-0.1999,-0.2,-0.1978,-0.1977,-0.1992,-0.1993,-0.1993,-0.1994,0,-0.141,-0.1486,-0.1549,-0.1662,-0.17,-0.1744,-0.1853,-0.1885,-0.1975,-0.201,-0.2032,-0.209,-0.206,-0.2057,-0.2014,-0.1944,-0.187,-0.1816,-0.1967,-0.195,-0.1724,-0.1726,-0.1644,-0.1639,-0.1636,-0.1632,-0.163,0,-0.1376,-0.1405,-0.1532,-0.1566,-0.1623,-0.1704,-0.1747,-0.1858,-0.1884,-0.1978,-0.197,-0.1993,-0.2008,-0.1846,-0.187,-0.1783,-0.176,-0.1711,-0.1723,-0.1706,-0.1687,-0.1695,-0.1703,-0.1623,-0.1622,-0.1621,-0.162,0,-0.1302,-0.1363,-0.1413,-0.1484,-0.1545,-0.1599,-0.1671,-0.1677,-0.1782,-0.1884,-0.1848,-0.1823,-0.1786,-0.1749,-0.1693,-0.1637,-0.1741,-0.1669,-0.1677,-0.1688,-0.168,-0.1667,-0.1679,-0.1607,-0.1609,-0.161,-0.1611,0,-0.1244,-0.1258,-0.1329,-0.1374,-0.1445,-0.1456,-0.1519,-0.1539,-0.1581,-0.169,-0.1671,-0.17,-0.1762,-0.1671,-0.1622,-0.1558,-0.1531,-0.1475,-0.1493,-0.1508,-0.1491,-0.1463,-0.1285,0,0,0,0,0,-0.1172,-0.117,-0.1208,-0.125,-0.1312,-0.1346,-0.144,-0.1504,-0.161,-0.1535,-0.1599,-0.1558,-0.1498,-0.1521,-0.142,-0.1553,-0.1535,-0.1431,-0.148,-0.1531,-0.1547,-0.1541,0,0,0,0,0,0,-0.1123,-0.1155,-0.1162,-0.1125,-0.1126,-0.1175,-0.1225,-0.1306,-0.1278,-0.1393,-0.1365,-0.1455,-0.1416,-0.1516,-0.1383,-0.1387,-0.1384,-0.1462,-0.1457,-0.1523,-0.1537,-0.1549,-0.1548,0,0,0,0,0]},{"header":{"parameterUnit":"m.s-1","parameterCategory":2,"la1":30.2991,"la2":30.254,"lo1":-89.0895,"lo2":-89.0444,"dy":0.0017,"dx":0.0017,"nx":28,"ny":28,"refTime":"2026-02-13T09:00:00:Z","depth":"4","parameterNumber":3,"parameterNumberName":"V-component_of_CURRENTS"},"data":[0,0,0,0,0,0,0,0,0,0,0,0,0,0,0,0,0,0,0,0,0,0,0,0,0,0,0,0,0,0,0,0,0,0,0,0,0,0,0,0,0,0,0,0,0,0,0,0,0,0,0,0,0,0,0,0,0,0,-0.0307,-0.0307,0,-0.0276,-0.0276,-0.0275,-0.025,-0.025,-0.025,-0.0249,-0.0167,-0.0165,-0.0163,0,0,0,0,0,0,0,0,0,0,0,0,0,-0.0311,-0.0311,-0.0307,-0.0307,-0.0306,-0.0276,-0.0276,-0.0275,-0.025,-0.025,-0.025,-0.0249,-0.0167,-0.0165,-0.0162,0,0,0,0,0,0,0,0,0,0,0,0,0,-0.0297,-0.0311,-0.0307,-0.0291,-0.0289,-0.0276,-0.0276,-0.0275,-0.025,-0.025,-0.025,-0.0249,-0.0168,-0.0165,-0.0162,-0.015,0,0,-0.0153,-0.0152,0,0,0,0,0,0,0,0,-0.0298,-0.0297,-0.0293,-0.0292,-0.029,-0.0267,-0.0247,-0.0231,-0.025,-0.0264,-0.0249,-0.0249,-0.0196,-0.0191,-0.0185,-0.0146,-0.0142,-0.0153,-0.0151,-0.0149,-0.0149,0,0,0,0,0,0,0,-0.0299,-0.0298,-0.0294,-0.0293,-0.0291,-0.0273,-0.0271,-0.0244,-0.0231,-0.0263,-0.0261,-0.0259,-0.0195,-0.0188,-0.0183,-0.0141,-0.0153,-0.015,-0.0148,-0.0147,-0.0096,-0.0096,0,0,0,0,0,0,-0.0306,-0.0299,-0.0295,-0.0293,-0.0294,-0.0274,-0.0271,-0.0274,-0.0232,-0.0226,-0.0259,-0.0258,-0.0194,-0.0187,-0.018,-0.0167,-0.0149,-0.0147,-0.0145,-0.0095,-0.0096,-0.0097,0,0,0,0,0,0,-0.0306,-0.0306,-0.0296,-0.0295,-0.0293,-0.0274,-0.0278,-0.0274,-0.027,-0.023,-0.0223,-0.0259,-0.0193,-0.0184,-0.0163,-0.0164,-0.0145,-0.0143,-0.0095,-0.0096,-0.0096,-0.0138,0,0,0,0,0,0,-0.0307,-0.0307,-0.0314,-0.0296,-0.0293,-0.0294,-0.0278,-0.0274,-0.0269,-0.0267,-0.0228,-0.022,-0.0192,-0.0168,-0.016,-0.0159,-0.014,-0.0094,-0.0095,-0.0096,-0.0136,-0.014,-0.0144,0,0,0,0,0,-0.0307,-0.0319,-0.0315,-0.0314,-0.0303,-0.0295,-0.0292,-0.0277,-0.027,-0.0271,-0.0247,-0.0221,-0.0167,-0.0166,-0.0156,-0.0155,-0.0094,-0.0095,-0.0096,-0.0135,-0.014,-0.0144,0,0,0,0,0,0,-0.0325,-0.0317,-0.0312,-0.0321,-0.0311,-0.0291,-0.0293,-0.0282,-0.0265,-0.0263,-0.0225,-0.0215,-0.0199,-0.0173,-0.0172,-0.0144,-0.0127,-0.0126,-0.016,-0.0164,-0.0168,-0.0169,-0.0138,0,0,0,0,0,-0.0333,-0.034,-0.0326,-0.0335,-0.0331,-0.0313,-0.0309,-0.0299,-0.0281,-0.0274,-0.0246,-0.0219,-0.0196,-0.0178,-0.0156,-0.0136,-0.0105,-0.0131,-0.0134,-0.0138,-0.0134,-0.0093,-0.0092,-0.01,-0.01,-0.01,0,0,-0.0343,-0.034,-0.0344,-0.0339,-0.033,-0.0331,-0.031,-0.0308,-0.0306,-0.0266,-0.0256,-0.0232,-0.0196,-0.0179,-0.0168,-0.0155,-0.0121,-0.0139,-0.0142,-0.0136,-0.0094,-0.0093,-0.0092,-0.0101,-0.01,-0.01,0,0,-0.0365,-0.0363,-0.0375,-0.037,-0.0362,-0.0349,-0.0351,-0.0334,-0.0323,-0.0311,-0.0285,-0.0262,-0.0227,-0.0199,-0.018,-0.019,-0.0147,-0.0186,-0.0197,-0.0158,-0.0156,-0.0155,-0.0121,-0.0116,-0.0181,-0.0182,-0.0182,0,-0.0377,-0.0391,-0.0377,-0.0386,-0.0385,-0.036,-0.037,-0.0356,-0.0334,-0.0323,-0.0315,-0.0264,-0.0235,-0.0204,-0.0209,-0.0196,-0.017,-0.0182,-0.0162,-0.0159,-0.0157,-0.0123,-0.0117,-0.0184,-0.0183,-0.0183,-0.0183,0,-0.0405,-0.0417,-0.0423,-0.0426,-0.0422,-0.0428,-0.0406,-0.0399,-0.0383,-0.0362,-0.0335,-0.0296,-0.0263,-0.0252,-0.0232,-0.0202,-0.0188,-0.0176,-0.0149,-0.0159,-0.0122,-0.0115,-0.0187,-0.0186,-0.0185,-0.0185,0,0,-0.043,-0.0442,-0.0445,-0.0456,-0.0445,-0.0447,-0.044,-0.0425,-0.0419,-0.0388,-0.0372,-0.033,-0.0304,-0.0281,-0.0249,-0.0211,-0.0176,-0.0189,-0.0186,-0.0154,-0.0091,-0.0085,-0.0077,-0.0159,-0.0158,-0.0157,-0.0075,0,-0.0457,-0.0489,-0.0481,-0.0506,-0.052,-0.0496,-0.0492,-0.0472,-0.0446,-0.0423,-0.037,-0.0346,-0.0315,-0.0302,-0.0258,-0.0197,-0.0159,-0.0199,-0.0088,-0.0085,-0.0077,-0.0069,-0.0153,-0.007,-0.0068,-0.0067,-0.0066,0,-0.0484,-0.0504,-0.0538,-0.0552,-0.0555,-0.0563,-0.0553,-0.0545,-0.0499,-0.0475,-0.043,-0.0388,-0.0327,-0.0306,-0.0193,-0.022,-0.0161,-0.0112,-0.0107,-0.0079,-0.0065,-0.0056,-0.0053,-0.0054,-0.0055,-0.0056,-0.0056,0,-0.0514,-0.0541,-0.0574,-0.058,-0.0588,-0.0598,-0.0598,-0.0565,-0.0559,-0.0508,-0.0492,-0.0411,-0.0374,-0.0284,-0.0177,-0.0186,-0.005,-0.0049,0.0015,0.0016,0.0004,0.0002,0.0029,0.0029,0.0029,0.0028,0.0028,0,-0.0542,-0.0569,-0.0596,-0.0616,-0.0653,-0.0639,-0.066,-0.0641,-0.0611,-0.06,-0.0525,-0.0491,-0.0367,-0.0274,-0.0179,-0.0054,-0.0048,0.0019,0.0041,-0.0017,-0.0023,0.0009,0.0006,0.0031,0.0031,0.003,0.003,0,-0.0566,-0.0584,-0.0629,-0.0658,-0.0672,-0.0699,-0.0716,-0.0721,-0.0683,-0.0665,-0.0652,-0.0547,-0.0421,-0.0287,-0.0135,-0.0063,0.0057,0.0098,0.0029,0.0045,0.0094,0.0087,0.017,0.0171,0.0172,0.0173,0.0173,0,-0.0579,-0.0607,-0.0669,-0.0705,-0.0725,-0.0762,-0.0785,-0.0765,-0.0761,-0.0696,-0.0683,-0.0567,-0.0483,-0.0248,-0.0117,0.0073,0.0094,0.0149,0.0119,0.0097,0.011,0.0102,0.0095,0.0175,0.0175,0.0175,0.0175,0,-0.0604,-0.0633,-0.0671,-0.075,-0.0795,-0.0835,-0.0859,-0.086,-0.0823,-0.0795,-0.0692,-0.0567,-0.0421,-0.0245,-0.0091,0.0039,0.011,0.0158,0.0156,0.0129,0.0104,0.0114,0.0106,0.0178,0.0178,0.0177,0.0177,0,-0.0621,-0.0659,-0.0719,-0.0781,-0.0846,-0.0883,-0.0894,-0.0871,-0.0854,-0.0769,-0.0739,-0.057,-0.0472,-0.0262,-0.0122,0.0014,0.0035,0.0062,0.0066,0.0064,0.0007,-0.0042,0.0013,0,0,0,0,0,-0.063,-0.0676,-0.0744,-0.0812,-0.0877,-0.0907,-0.093,-0.0924,-0.0891,-0.082,-0.0772,-0.0628,-0.0402,-0.03,-0.0162,-0.0129,0.0041,0.0033,0.0069,0.0194,0.0191,0.0142,0,0,0,0,0,0,-0.0639,-0.0705,-0.0742,-0.0821,-0.087,-0.0929,-0.0944,-0.0923,-0.0867,-0.0815,-0.0685,-0.0609,-0.0383,-0.0476,-0.0162,-0.0122,-0.0085,0.0146,0.0148,0.0196,0.0193,0.019,0.014,0,0,0,0,0]}]]